Location: Demre
(36.2444°N, 29.9850°E)
Time: 05:10:50
(UTC+00:00)

Cosmos 2263 - Pass Details

Date: 11 March 2026
Orbit: 831 x 862 km, 70.9° (Epoch: 21 April)

Event Time Altitude Azimuth Distance (km) Brightness Sun altitude
Rises 17:41:21 0° 189° (S) 3,400 7.3 -20.4°
Reaches altitude 10° 17:43:49 10° 186° (S) 2,464 6.6 -20.9°
Maximum altitude 17:49:22 59° 108° (ESE) 970 4.1 -22.0°
Drops below altitude 10° 17:54:53 10° 30° (NNE) 2,458 6.4 -23.1°
Sets 17:57:21 0° 27° (NNE) 3,392 7.2 -23.5°
